Weather History for MCMWTC BRIDGEPORT, CA, CA

Change the Weather History Date:

Saturday, November 30, 2013

  Actual Average (KTVL) Record (KTVL)
Temperature  
Mean Temperature 33 °F 32 °F  
Max Temperature 54 °F 45 °F 64 °F (1995)
Min Temperature 12 °F 19 °F 3 °F (2004)
Degree Days  
Heating Degree Days 32 33  
Month to date heating degree days 861  
Since 1 July heating degree days 2093  
Cooling Degree Days 0 0  
Month to date cooling degree days 0  
Year to date cooling degree days 31  
Moisture  
Dew Point 11 °F    
Average Humidity 54    
Maximum Humidity 81    
Minimum Humidity 17    
Precipitation  
Precipitation 0.00 in - 2.59 in (1982)
Month to date precipitation  
Year to date precipitation  
Sea Level Pressure  
Sea Level Pressure 30.37 in    
Wind  
Wind Speed 1 mph (East)    
Max Wind Speed 12 mph    
Max Gust Speed 20 mph    
Visibility 10 miles    
Events      
T = Trace of Precipitation, MM = Missing Value Source: NWS Daily Summary

Daily Weather History Graph

Daily Weather History Graph

Search for Another Location

Airport:

Trip Planner

Search our weather history database for the weather conditions in past years. The results will help you decide how hot, cold, wet, or windy it might be!

Date:

Astronomy

Nov. 30, 2013 Rise Set
Actual Time 6:55 AM PST 4:38 PM PST
Civil Twilight 6:26 AM PST 5:07 PM PST
Nautical Twilight 5:53 AM PST 5:39 PM PST
Astronomical Twilight 5:21 AM PST 6:11 PM PST
Moon 4:13 AM PST (11/30) 3:04 PM PST (11/30)
Length of Visible Light 10h 40m
Length of Day
9h 42m
Waning Crescent, 6% of the Moon is Illuminated
Nov 30
Waning Crescent
Dec 2
New
Dec 9
First Quarter
Dec 17
Full
Dec 25
Last Quarter

Hourly Weather History & Observations

Time (PST) Temp. Dew Point Humidity Pressure Visibility Wind Dir Wind Speed Gust Speed Precip Events Conditions
12:52 AM 17.1 °F 12.0 °F 81% 30.33 in 10.0 mi Calm Calm - N/A   Clear
1:52 AM 17.1 °F 10.9 °F 77% 30.33 in 10.0 mi Calm Calm - N/A   Clear
2:52 AM 15.1 °F 9.0 °F 77% 30.33 in 10.0 mi Calm Calm - N/A   Clear
3:52 AM 14.0 °F 8.1 °F 77% 30.35 in 10.0 mi Calm Calm - N/A   Clear
4:52 AM 14.0 °F 9.0 °F 80% 30.39 in 10.0 mi Calm Calm - N/A   Clear
5:52 AM 12.9 °F 7.0 °F 77% 30.42 in 10.0 mi Calm Calm - N/A   Clear
6:52 AM 12.9 °F 6.1 °F 74% 30.46 in 10.0 mi Calm Calm - N/A   Clear
7:52 AM 14.0 °F 8.1 °F 77% 30.48 in 10.0 mi Calm Calm - N/A   Clear
8:52 AM 23.0 °F 16.0 °F 74% 30.44 in 10.0 mi Calm Calm - N/A   Clear
9:52 AM 33.1 °F 18.0 °F 54% 30.40 in 10.0 mi Calm Calm - N/A   Clear
10:52 AM 42.1 °F 15.1 °F 34% 30.34 in 10.0 mi Calm Calm - N/A   Clear
11:52 AM 51.1 °F 14.0 °F 23% 30.26 in 10.0 mi Calm Calm - N/A   Clear
12:52 PM 53.1 °F 10.0 °F 18% 30.23 in 10.0 mi Calm Calm - N/A   Clear
1:52 PM 54.0 °F 9.0 °F 17% 30.21 in 10.0 mi Variable 6.9 mph - N/A   Clear
2:52 PM 53.1 °F 9.0 °F 17% 30.23 in 10.0 mi ENE 11.5 mph 19.6 mph N/A   Partly Cloudy
3:52 PM 46.9 °F 12.0 °F 24% 30.28 in 10.0 mi SE 11.5 mph - N/A   Clear
4:52 PM 39.0 °F 10.9 °F 32% 30.34 in 10.0 mi Calm Calm - N/A   Clear
5:52 PM 34.0 °F 12.0 °F 40% 30.40 in 10.0 mi Calm Calm - N/A   Clear
6:52 PM 30.0 °F 10.9 °F 45% 30.45 in 10.0 mi Calm Calm - N/A   Clear
7:52 PM 26.1 °F 10.9 °F 53% 30.50 in 10.0 mi Calm Calm - N/A   Clear
8:52 PM 25.0 °F 10.9 °F 55% 30.46 in 10.0 mi Calm Calm - N/A   Clear
9:52 PM 21.9 °F 10.9 °F 63% 30.44 in 10.0 mi Calm Calm - N/A   Clear
10:52 PM 21.0 °F 10.0 °F 63% 30.40 in 10.0 mi Calm Calm - N/A   Clear
11:52 PM 17.1 °F 9.0 °F 71% 30.39 in 10.0 mi Calm Calm - N/A   Clear